Location: San Antonio
(29.4240°N, 98.4930°W)
Time: 18:59:55
(UTC-05:00)

ZACube-1 - Pass Details

Date: 09 August 2024
Orbit: 561 x 628 km, 97.7° (Epoch: 15 September)

Event Time Altitude Azimuth Distance (km) Brightness Sun altitude
Rises 04:55:23 0° 359° (N) 2,912 ? -24.7°
Reaches altitude 10° 04:57:44 10° 349° (N) 2,008 ? -24.3°
Enters shadow 05:00:23 27° 319° (NW) 1,208 ? -23.8°
